This is the latest recevied weather packets stored in our database for station/object NE8U. If no packets are shown the sender has not sent any weather packets the latest 10 day(s).
| Time | Temp. | Humidity | Pressure | Rain* | Wind** | Luminosity | Snow |
|---|---|---|---|---|---|---|---|
| 1777426846 | 25.56° C | 16% | 1015.3 hPa | 0 mm | - | 12 W/m² | - |
| 1777426543 | 25.56° C | 15% | 1015.3 hPa | 0 mm | - | 17 W/m² | - |
| 1777426239 | 25.56° C | 15% | 1015.3 hPa | 0 mm | - | 25 W/m² | - |
| 1777425934 | 26.11° C | 15% | 1015.6 hPa | 0 mm | - | 28 W/m² | - |
| 1777425629 | 26.11° C | 15% | 1015.3 hPa | 0 mm | - | 34 W/m² | - |
| 1777425325 | 26.11° C | 15% | 1015.4 hPa | 0 mm | - | 46 W/m² | - |
| 1777425022 | 26.11° C | 15% | 1015.4 hPa | 0 mm | - | 51 W/m² | - |
| 1777424717 | 26.67° C | 15% | 1015.4 hPa | 0 mm | - | 59 W/m² | - |
| 1777424413 | 26.67° C | 15% | 1015.5 hPa | 0 mm | - | 69 W/m² | - |
| 1777424109 | 26.67° C | 14% | 1015.5 hPa | 0 mm | - | 70 W/m² | - |
| 1777423806 | 26.67° C | 14% | 1015.6 hPa | 0 mm | - | 74 W/m² | - |
| 1777423503 | 27.22° C | 14% | 1015.3 hPa | 0 mm | - | 82 W/m² | - |
| 1777423197 | 27.22° C | 14% | 1015.5 hPa | 0 mm | - | 97 W/m² | - |
| 1777422891 | 27.22° C | 14% | 1015.5 hPa | 0 mm | - | 108 W/m² | - |
| 1777422586 | 27.22° C | 14% | 1015.5 hPa | 0 mm | - | 108 W/m² | - |
| 1777422283 | 27.22° C | 14% | 1015.4 hPa | 0 mm | - | 104 W/m² | - |
| 1777421978 | 27.78° C | 14% | 1015.3 hPa | 0 mm | - | 118 W/m² | - |
| 1777421672 | 27.78° C | 14% | 1015.3 hPa | 0 mm | - | 121 W/m² | - |
| 1777421367 | 28.33° C | 13% | 1015.4 hPa | 0 mm | - | 185 W/m² | - |
| 1777421064 | 27.78° C | 13% | 1015.1 hPa | 0 mm | - | 226 W/m² | - |
| 1777420761 | 27.78° C | 13% | 1015.2 hPa | 0 mm | - | 156 W/m² | - |
| 1777420457 | 28.33° C | 13% | 1015.1 hPa | 0 mm | - | 175 W/m² | - |
| 1777420154 | 27.78° C | 13% | 1015.2 hPa | 0 mm | - | 207 W/m² | - |
| 1777419849 | 28.33° C | 13% | 1015.1 hPa | 0 mm | - | 206 W/m² | - |
| 1777419546 | 27.78° C | 13% | 1015.1 hPa | 0 mm | - | 165 W/m² | - |
* Rain latest hour (hover to see other rain measurements)
** Current wind speed in m/s (hover to see current wind gust speed)